Theta_e
297 301 303 303 303 301 301 301 301 301 301 301 302 302 303 304 304 304 305 305 305 304 305 305 305 306 307 308 310 310 311 312 313 313 314 315 316 316 316 316 315 315 315 316 316 316 317 317 317 318 317 317 317 317 317 317 317 317 316 316 316 316 316 315 315 315 315 315 314 314 313 313 312 311 311 310 310 310 310 309 309 308 308 308 308 308
295 298 301 303 303 302 302 302 302 302 302 302 302 302 302 303 303 303 304 305 305 305 305 305 305 305 305 307 309 310 310 311 312 313 313 314 314 314 315 314 314 314 314 314 315 315 315 316 315 315 316 315 316 316 316 316 316 316 316 315 315 315 315 315 315 314 314 314 313 313 312 312 312 311 311 310 310 310 309 309 308 308 308 308 308 308
295 297 299 302 303 303 303 302 302 302 302 302 303 303 302 302 302 303 303 304 305 304 305 305 305 305 305 306 308 310 310 311 312 313 313 313 313 313 313 314 314 314 314 313 313 314 314 314 314 314 314 314 314 314 314 315 314 314 314 314 314 314 314 314 314 313 313 312 312 312 312 311 311 311 311 310 310 310 309 309 308 308 308 308 309 309
295 297 298 301 302 303 303 303 303 303 303 304 304 303 302 302 302 303 303 303 304 304 304 304 304 304 304 305 307 309 310 311 312 312 312 312 312 312 312 312 312 312 312 312 313 313 313 313 313 313 313 313 313 313 313 313 313 313 313 312 312 312 312 312 312 312 311 311 311 311 311 311 311 311 310 310 310 310 309 309 309 308 308 309 309 309
294 296 297 299 301 301 302 302 302 303 303 303 303 303 303 302 302 303 303 303 303 304 304 303 303 304 304 304 306 308 310 311 311 312 312 312 312 311 311 311 311 311 312 312 312 312 312 312 312 312 312 312 312 312 311 311 311 311 311 311 310 310 311 311 311 310 310 310 310 310 310 310 310 310 310 310 310 310 309 309 309 309 309 309 309 309
294 295 296 297 298 298 297 298 300 301 301 301 301 301 301 302 302 302 302 302 303 303 303 303 303 302 303 303 305 308 309 310 311 311 312 312 311 311 311 311 311 310 311 311 311 311 311 311 311 311 311 311 310 311 310 310 310 310 309 309 309 309 309 309 309 309 309 309 309 309 309 309 310 309 309 309 309 309 309 309 309 309 309 309 309 309
293 293 294 295 294 294 294 295 297 299 299 299 298 298 298 299 300 300 300 301 301 301 302 301 301 301 301 302 304 307 308 309 310 310 311 311 311 311 311 310 310 310 310 309 309 310 309 309 310 310 309 309 309 309 309 309 309 308 308 308 308 308 308 308 308 308 308 308 308 309 309 309 309 309 308 309 309 309 309 309 309 309 309 309 309 309
293 292 292 293 293 293 293 293 295 297 298 298 297 297 296 296 296 297 296 297 298 299 300 299 298 298 298 299 302 305 306 307 308 309 310 311 311 311 310 310 310 310 309 309 309 308 308 308 308 308 308 308 308 308 307 307 307 307 307 306 306 307 307 307 307 307 307 308 308 308 308 308 308 308 308 308 308 309 309 309 309 309 309 309 309 309
293 292 292 292 293 293 293 292 293 295 297 297 297 297 296 295 295 294 294 294 295 296 297 298 297 297 296 296 298 301 304 305 306 306 307 308 310 310 310 310 310 309 309 309 308 308 307 307 307 307 307 307 306 306 306 306 305 305 305 305 305 305 305 306 306 306 307 307 307 307 307 308 308 308 308 308 308 308 308 308 309 309 309 309 309 309
293 293 293 292 293 293 293 292 292 293 295 296 297 297 296 296 295 294 293 293 293 293 295 297 297 297 295 293 294 296 300 303 305 306 307 307 308 309 309 309 309 309 308 308 308 307 307 307 306 306 306 306 306 305 305 304 304 304 303 304 304 304 304 304 305 305 305 306 306 307 307 307 307 307 307 307 307 308 308 308 308 308 309 309 309 309
293 293 293 293 293 293 292 291 291 292 294 294 295 295 295 296 296 295 294 293 292 292 293 295 296 297 296 294 293 294 297 298 300 303 305 305 306 307 308 308 308 308 308 308 307 307 307 307 306 306 306 305 305 305 304 304 303 303 303 303 303 303 303 304 304 304 305 306 306 306 307 307 307 307 307 307 307 307 307 307 308 308 308 308 308 308
292 293 293 293 292 292 291 289 290 291 293 293 293 293 293 295 296 296 295 294 293 292 292 293 294 295 296 295 294 293 294 296 297 298 299 300 301 303 304 306 307 308 308 308 307 307 307 307 306 306 306 306 305 304 304 303 303 303 303 303 303 303 304 304 304 305 305 305 305 306 306 307 307 307 307 307 307 307 307 307 307 307 307 307 307 307
292 292 292 292 292 292 291 290 290 291 292 293 293 293 293 294 295 296 296 295 294 294 292 292 292 293 293 294 294 295 294 295 296 296 296 296 296 297 298 301 303 305 307 307 307 307 307 307 307 306 306 305 305 304 304 303 303 303 303 303 304 304 304 304 305 305 305 305 306 306 306 306 307 307 307 307 307 307 306 306 306 306 306 306 306 306
292 292 292 292 292 292 292 291 291 291 292 293 294 294 295 294 294 294 294 294 293 293 293 292 292 292 292 292 293 294 295 295 295 294 295 295 294 295 296 297 298 300 302 304 305 306 307 307 306 306 306 305 305 304 304 304 303 303 303 303 304 304 304 304 305 305 305 305 305 305 306 306 306 306 307 307 307 306 306 306 305 305 305 305 305 305
292 292 292 292 292 293 293 292 292 292 293 293 294 294 294 293 293 293 293 293 292 291 291 291 291 291 291 291 291 292 294 294 294 294 294 294 294 294 295 296 296 296 297 300 301 304 306 306 305 305 305 305 304 304 304 304 304 304 304 304 304 304 305 305 305 305 305 305 305 305 305 306 306 306 306 306 306 306 305 305 305 304 304 304 304 303
293 293 292 292 293 293 294 293 293 293 293 293 293 294 293 293 293 293 293 292 292 291 290 290 289 289 291 291 291 291 293 293 294 294 294 294 294 293 294 295 295 295 295 297 298 300 302 303 303 303 304 304 304 304 304 304 304 304 304 304 304 304 304 304 304 305 304 304 304 305 305 305 305 305 306 306 305 305 305 304 304 304 303 303 303 302
293 293 293 293 293 294 294 294 294 294 294 293 294 294 293 293 293 293 293 293 292 291 290 290 289 289 290 290 290 291 293 293 293 293 293 294 293 293 293 295 295 295 295 296 297 298 298 299 300 301 302 304 304 304 304 304 304 304 304 304 304 304 304 304 304 304 304 304 304 304 304 305 305 305 305 305 305 305 304 304 303 303 303 303 302 302
294 294 293 293 293 294 294 294 294 294 294 294 293 294 294 294 294 293 293 293 292 291 291 291 291 291 290 290 290 291 293 293 293 292 292 293 293 293 293 294 295 295 295 296 296 297 297 298 298 300 301 303 304 304 304 304 304 304 304 303 303 303 303 303 304 304 304 304 304 304 304 304 304 304 304 304 304 304 304 304 303 303 303 302 302 302
294 294 294 294 294 294 294 294 294 294 294 294 294 293 293 293 293 293 293 293 293 292 291 291 292 292 292 291 291 291 293 294 293 292 292 292 293 293 292 293 294 295 295 295 296 296 297 297 298 300 301 303 303 303 304 304 304 304 304 303 303 303 303 303 303 303 304 304 303 303 303 303 304 304 304 304 304 303 303 303 303 303 302 302 302 302
294 294 295 294 294 294 294 295 295 295 295 295 295 294 292 292 292 292 293 293 293 293 293 292 292 293 294 292 290 290 293 294 293 292 292 292 293 293 292 293 293 294 294 295 296 296 296 296 297 299 301 301 302 303 303 303 304 304 303 303 303 303 303 303 303 303 303 303 303 303 303 303 303 303 303 303 303 303 303 303 303 303 302 302 302 301
294 294 295 296 295 294 294 295 296 296 297 296 295 294 292 292 292 292 292 293 293 293 293 293 293 293 294 293 291 290 293 294 293 292 292 292 292 292 292 293 293 293 293 294 295 295 296 296 296 297 299 300 301 302 302 303 303 303 303 303 303 303 303 303 303 303 303 303 303 303 302 303 303 303 303 303 303 303 303 303 303 302 302 302 302 301
295 295 295 296 296 296 296 296 296 297 298 297 295 294 293 292 292 292 292 292 293 293 293 293 294 294 294 292 291 290 293 294 294 293 293 292 292 292 291 292 292 292 293 293 294 295 295 295 295 296 298 300 301 301 302 302 302 302 303 303 303 303 303 303 303 303 303 303 303 303 302 302 302 302 302 302 302 302 302 302 302 302 302 301 301 301
297 296 296 296 297 297 297 296 297 297 298 297 296 295 295 294 293 293 293 293 293 293 293 293 293 291 289 288 288 290 292 294 294 294 293 292 292 292 290 291 292 291 292 293 293 293 294 294 295 295 297 299 300 301 301 301 302 302 302 302 302 303 303 303 303 303 303 303 303 302 302 302 302 302 302 302 302 302 302 302 302 302 301 301 301 301
298 298 298 297 297 297 297 297 297 297 297 297 297 297 297 296 295 294 294 294 294 294 293 292 290 288 287 287 287 288 291 293 294 294 293 292 291 290 289 290 291 291 291 292 292 292 292 293 293 294 296 297 299 300 301 301 301 301 302 302 302 302 302 302 303 303 303 303 303 302 302 302 302 302 301 301 301 301 301 301 301 301 301 301 301 300
298 299 299 299 298 298 298 298 298 298 298 297 297 297 297 297 296 296 295 294 293 293 292 291 290 289 288 288 287 286 289 291 292 293 292 291 289 288 286 289 290 291 291 291 291 291 291 292 292 293 294 295 297 299 299 300 301 301 301 301 301 302 302 302 302 303 303 303 302 302 302 302 302 302 301 301 301 301 301 301 301 301 300 300 300 300
298 299 300 300 300 300 300 300 300 300 299 298 297 297 297 296 295 294 293 292 292 292 291 290 290 289 289 288 287 286 287 289 291 292 292 291 289 287 285 288 290 291 291 289 289 289 290 291 291 291 292 293 295 297 298 299 300 300 301 301 301 301 301 302 302 302 302 302 302 303 302 302 302 302 301 301 301 301 301 301 300 300 300 300 300 300
299 299 300 301 301 301 301 301 301 301 301 300 299 298 297 296 294 292 291 291 291 291 290 290 289 289 289 289 288 287 287 289 290 291 292 291 289 287 285 287 289 290 290 287 286 287 289 290 291 291 291 291 292 294 297 298 299 299 300 300 301 301 301 301 302 302 302 302 303 302 302 302 302 301 301 301 301 301 301 300 300 300 300 300 299 299
299 299 299 300 300 301 301 301 301 301 301 301 301 300 298 296 293 291 291 292 292 291 290 290 290 289 290 289 289 288 286 288 289 290 291 291 289 287 285 286 287 289 288 285 285 286 288 289 290 290 290 289 290 291 294 296 297 298 299 300 300 300 300 301 301 302 302 302 302 302 302 302 302 301 301 301 301 301 301 300 300 300 300 299 297 296
297 298 299 299 300 300 301 301 301 301 302 302 301 301 299 296 294 292 292 293 292 291 290 290 290 290 290 289 289 287 286 288 289 290 291 290 288 287 284 285 286 287 287 284 284 284 285 286 287 287 288 289 289 289 290 293 295 297 298 299 299 299 300 300 300 301 302 302 302 302 302 302 302 301 301 301 301 301 301 301 300 300 299 297 296 294
294 295 296 297 298 298 299 299 300 301 301 302 302 301 299 297 295 294 294 293 292 291 290 291 291 291 290 289 288 286 286 288 289 290 290 289 288 287 284 284 285 286 287 285 283 283 283 284 285 286 286 287 288 287 288 290 292 294 295 297 298 299 299 299 300 300 301 302 302 302 302 302 302 301 301 301 301 301 301 301 300 299 297 296 294 292
291 292 292 293 294 295 296 297 298 299 300 301 301 301 300 298 296 295 295 294 293 292 291 291 291 291 290 289 288 287 288 288 290 291 290 289 288 287 285 285 285 286 287 286 285 283 282 283 284 284 284 285 286 286 287 288 289 291 292 294 295 296 298 298 299 299 300 301 301 302 302 302 302 301 301 301 301 301 301 300 300 298 296 294 293 292
290 290 290 291 291 293 294 295 296 297 299 299 300 300 300 298 297 296 295 294 293 292 292 291 291 291 291 290 290 289 289 289 290 291 291 289 289 288 287 286 285 286 287 287 286 285 284 283 282 282 281 282 283 285 286 287 288 289 290 291 292 294 296 297 298 298 299 300 301 301 302 301 301 301 301 301 301 301 301 300 300 298 296 293 292 291
290 290 290 290 290 291 292 293 294 296 297 298 298 299 299 298 298 296 295 295 294 293 292 291 291 291 291 291 290 290 288 288 290 292 292 290 289 289 288 287 286 286 286 287 286 284 283 282 281 280 280 280 282 283 285 286 287 288 289 290 290 292 294 296 296 297 298 299 300 301 301 301 301 301 301 301 301 301 300 300 300 298 296 292 291 291
291 290 290 289 289 289 290 291 292 294 295 296 297 298 298 298 297 296 295 295 294 294 293 292 292 291 290 290 290 290 289 286 289 293 293 290 289 289 288 287 286 286 285 285 284 282 279 278 278 279 279 280 281 282 283 284 286 287 287 289 289 290 292 294 295 296 296 297 298 299 300 300 301 301 300 300 300 300 300 300 299 299 297 293 291 291
291 291 290 290 289 289 289 290 290 291 293 295 296 297 297 297 297 296 296 295 295 294 293 293 293 292 291 290 290 290 290 287 289 293 293 291 289 288 288 287 287 286 286 285 285 283 280 278 278 279 280 280 280 281 282 282 283 284 285 287 288 289 290 292 293 294 295 296 296 296 297 298 299 300 300 300 300 300 299 299 299 299 298 296 294 292
291 291 291 290 290 290 290 290 290 291 292 293 294 296 296 297 297 296 296 295 294 294 294 294 293 293 292 292 291 290 290 288 289 292 293 291 289 288 288 287 287 287 286 286 285 285 283 281 280 281 282 281 281 281 281 280 281 282 283 285 287 288 288 289 291 292 294 294 294 294 293 294 295 297 297 299 299 299 299 299 299 298 298 297 295 293
291 291 291 291 291 290 290 290 290 290 291 292 293 294 295 295 296 296 295 294 294 294 294 294 293 293 293 292 292 291 290 289 289 291 293 291 290 288 287 287 287 288 287 286 286 285 285 283 282 282 282 281 281 280 280 280 281 281 282 284 285 286 286 287 288 291 292 293 293 292 291 292 293 294 295 297 298 298 299 299 298 298 297 297 296 295
291 291 291 291 291 291 290 290 290 291 291 291 292 293 293 294 294 294 294 293 293 293 293 293 292 292 293 293 291 290 289 288 289 290 291 290 289 288 286 286 287 288 287 287 286 286 285 284 283 282 281 280 280 281 281 281 281 282 282 283 283 283 283 284 286 288 291 292 292 292 291 291 291 292 293 294 295 295 295 295 296 297 297 296 296 295
291 291 291 291 291 291 291 290 290 291 291 291 292 292 292 292 292 292 292 292 292 292 292 292 291 291 291 291 291 290 289 288 288 289 290 289 288 287 286 286 286 287 287 287 286 286 285 284 283 283 282 280 279 279 280 281 282 282 281 282 282 282 282 282 284 287 290 291 291 291 290 289 289 290 290 290 291 291 290 290 292 294 294 293 294 295
291 291 291 291 291 291 291 290 290 290 290 291 291 292 291 291 291 291 290 290 291 291 291 290 290 290 290 290 290 290 288 288 288 289 289 288 288 287 287 286 286 286 287 286 286 285 285 284 284 284 283 281 280 279 280 281 282 283 283 282 282 283 283 281 281 283 286 289 290 290 288 286 286 288 288 288 289 289 288 287 287 289 290 289 289 290
292 292 292 292 292 292 291 291 291 290 290 290 290 290 290 290 290 290 290 290 290 290 289 289 289 289 288 287 286 285 286 286 288 289 289 288 288 287 287 286 286 286 286 285 285 285 285 284 283 283 283 281 280 280 281 282 283 284 284 283 283 283 283 282 282 282 284 287 288 288 288 286 287 287 288 288 287 286 287 285 284 284 286 285 285 286
292 292 292 292 291 290 291 291 291 290 290 289 289 289 290 290 290 290 290 290 289 289 288 288 288 288 287 286 284 282 282 284 286 287 288 288 287 287 287 287 286 286 286 285 285 284 285 285 284 284 283 282 281 280 280 282 284 285 285 284 284 284 284 282 281 280 283 286 287 288 289 287 287 287 287 286 284 283 284 283 285 286 286 283 283 284
292 293 293 292 290 289 290 291 291 291 290 290 289 289 289 290 290 290 290 289 289 289 288 287 287 288 287 286 284 283 282 282 283 285 287 287 287 287 287 287 287 286 286 285 284 284 285 285 285 284 284 284 283 282 281 282 283 284 285 285 284 283 281 281 280 279 281 285 287 287 288 287 286 286 285 284 282 280 281 285 287 288 288 284 282 281
292 293 293 292 291 290 291 291 291 290 290 289 289 289 289 289 290 290 290 289 289 289 288 287 287 287 287 286 286 285 284 283 283 284 286 287 288 287 287 287 287 286 286 286 285 284 284 285 285 284 284 284 284 283 282 283 283 284 285 285 285 284 283 282 282 281 282 283 285 286 286 286 285 284 283 281 280 279 280 281 282 283 286 283 281 280
292 293 293 293 292 291 291 291 290 290 290 289 289 289 289 288 289 290 290 289 289 288 288 287 287 287 286 286 286 285 284 283 283 283 284 287 288 289 287 287 287 286 286 286 286 286 285 285 284 284 284 284 284 284 283 283 283 284 285 286 285 285 283 283 283 283 283 283 283 283 283 284 284 283 282 280 279 278 278 279 280 281 281 280 280 279
292 292 292 292 292 291 291 291 290 290 290 289 289 289 289 288 288 288 289 289 288 288 288 287 287 286 286 286 286 286 285 284 283 283 283 284 286 287 287 287 287 286 286 286 286 286 286 285 285 285 284 284 284 284 284 284 284 284 284 285 285 284 282 282 283 283 283 283 282 281 281 282 283 284 283 282 280 278 277 278 279 280 279 279 279 279
290 291 291 292 292 291 291 291 291 290 290 289 289 289 289 288 288 287 288 288 288 288 287 287 286 286 286 286 286 286 285 284 284 283 283 283 284 285 286 286 286 286 285 285 285 285 285 285 286 285 285 284 283 283 283 284 284 284 284 285 285 284 282 281 282 283 283 283 282 281 280 282 283 284 284 282 281 279 277 277 278 279 279 279 279 279
289 290 291 291 291 291 291 291 290 290 289 289 289 289 289 288 288 287 287 287 287 287 287 286 286 286 286 286 286 286 286 285 285 284 284 284 284 284 284 284 285 285 285 285 285 285 284 284 284 285 285 285 284 283 283 283 284 284 284 285 285 284 282 281 281 282 283 283 282 280 281 282 284 284 283 282 281 280 278 277 277 278 278 279 279 279
289 290 290 291 291 291 290 290 290 290 289 289 289 289 289 289 289 288 287 287 287 287 287 286 285 285 285 286 286 287 287 286 286 285 285 284 284 284 284 284 284 284 284 284 284 283 284 284 284 284 285 285 285 284 283 283 283 284 284 285 285 284 282 281 281 281 282 282 281 280 281 283 284 285 284 282 281 281 280 278 277 277 277 278 278 279
289 289 290 290 291 290 290 290 290 289 289 289 289 289 288 288 288 288 287 287 287 287 287 286 286 285 285 285 286 286 287 286 286 285 285 285 285 284 284 284 284 284 283 282 282 282 282 283 283 285 287 287 286 285 284 283 283 283 283 284 284 284 283 282 281 281 281 281 280 280 281 283 284 284 284 283 282 281 280 280 279 278 277 277 277 278
289 289 289 289 290 290 290 290 290 289 289 289 289 289 288 288 288 287 287 287 287 287 287 287 286 286 285 286 286 286 286 286 286 285 285 285 285 285 284 284 284 283 283 282 281 281 281 281 281 282 285 288 289 287 284 284 283 282 282 283 284 284 283 282 281 281 281 281 280 280 281 282 282 283 283 283 282 281 280 280 280 279 277 276 276 277
Wind_Speed
1 1 2 5 6 6 6 8 8 7 6 5 4 3 2 3 3 2 3 3 3 3 4 4 4 4 5 6 6 6 5 4 5 5 4 2 4 7 10 12 12 12 11 12 13 14 16 18 19 20 20 21 21 22 22 22 21 21 20 19 19 18 17 17 16 16 16 16 17 17 16 16 16 16 16 16 16 15 15 15 15 14 14 14 14 14
1 1 2 5 6 6 5 8 10 9 8 7 6 5 4 4 3 3 2 2 2 3 3 3 3 3 4 5 6 6 5 5 5 6 6 5 4 5 8 11 13 13 13 12 12 13 14 16 17 18 19 20 20 21 21 21 20 20 19 19 18 17 17 16 16 16 16 17 17 16 16 16 16 16 17 16 16 16 16 16 15 15 15 15 15 15
1 1 2 4 6 6 5 8 9 10 10 9 7 6 6 6 5 4 4 3 3 2 2 2 2 2 3 4 5 6 6 6 6 7 8 7 6 6 6 8 11 13 14 14 13 13 13 15 16 17 18 18 19 19 19 19 18 18 17 17 16 16 15 15 15 15 16 16 16 16 15 16 16 17 17 17 17 17 17 16 16 16 15 15 15 15
1 1 2 3 4 6 5 6 7 8 8 8 7 7 7 6 6 5 4 4 3 3 2 2 2 2 2 3 5 7 8 7 7 8 9 10 9 8 7 7 9 12 14 15 14 14 13 14 15 16 17 17 18 18 17 17 16 16 15 14 14 13 13 13 13 14 14 14 15 15 15 16 17 18 18 18 17 17 17 17 17 16 16 16 16 16
1 1 1 2 3 4 3 2 4 5 6 6 6 6 6 6 5 5 4 4 4 4 3 2 2 3 2 3 4 6 8 8 8 8 10 11 11 11 10 9 10 11 13 14 15 14 14 14 14 15 16 17 17 16 16 15 14 14 13 12 12 11 11 11 12 12 13 13 14 14 15 16 17 18 18 18 18 18 18 18 17 17 17 16 16 17
1 1 2 1 1 1 1 1 1 3 4 4 4 4 4 5 4 4 4 4 4 4 3 3 3 3 3 3 4 6 8 8 8 8 10 11 13 14 14 13 12 12 13 14 14 15 14 14 14 15 15 16 16 15 15 14 14 13 12 12 11 11 10 11 11 11 12 13 13 14 14 15 16 17 17 18 18 18 18 18 18 17 17 17 17 17
1 1 2 1 1 1 2 2 1 1 2 3 3 2 2 3 3 3 4 4 4 4 4 3 2 2 2 3 4 6 7 8 8 8 9 12 14 15 16 16 16 15 15 15 15 15 15 15 14 14 14 14 14 14 14 13 13 12 11 11 10 10 10 10 10 11 11 12 13 13 14 14 15 15 16 17 18 18 19 18 18 17 17 17 17 17
1 1 1 1 1 1 1 2 1 0 2 2 2 2 2 1 1 1 1 2 2 3 3 3 2 2 1 1 3 4 5 6 6 6 7 10 13 16 18 19 19 19 18 18 17 17 17 16 16 14 13 13 13 13 13 12 11 11 10 9 9 8 8 9 10 10 11 12 12 13 13 14 14 14 15 16 17 18 19 18 18 18 17 17 18 18
1 1 1 1 1 0 0 1 2 1 1 1 2 3 2 2 2 1 1 0 1 2 3 3 3 3 1 0 0 2 4 4 5 5 5 6 9 13 16 18 20 20 20 20 19 19 19 18 17 15 13 12 12 11 11 11 10 9 9 8 8 8 8 9 10 11 11 12 12 13 13 14 14 14 15 15 16 17 18 18 18 18 18 18 18 18
2 2 2 2 1 1 1 1 1 1 0 1 2 2 2 3 3 2 1 1 1 0 1 3 4 4 2 1 1 0 2 4 5 6 6 5 7 10 13 15 16 18 20 20 20 20 19 18 17 15 14 12 11 11 10 10 9 9 8 8 8 9 10 11 12 13 14 14 14 14 14 14 15 15 15 15 16 16 16 16 17 17 17 18 18 18
2 2 2 2 1 0 0 0 1 1 1 1 1 1 1 2 3 4 4 3 2 1 1 2 3 4 3 2 1 0 1 2 4 5 6 4 5 7 10 12 14 16 19 20 20 20 20 19 17 16 14 13 12 11 11 10 10 10 10 10 11 12 13 14 15 16 16 16 15 15 15 15 15 16 16 16 15 15 15 15 15 15 16 17 17 18
2 1 1 1 1 0 0 1 1 1 1 1 1 1 2 2 3 4 5 4 3 3 2 2 2 2 3 3 2 2 2 2 2 2 3 2 2 3 6 9 12 14 17 18 19 19 20 20 19 17 15 14 14 13 12 12 11 12 12 13 13 14 16 16 17 17 17 17 16 16 15 16 16 16 16 16 15 15 14 13 13 13 14 15 16 16
1 1 1 1 1 1 1 0 0 0 1 2 3 3 4 3 3 3 4 4 4 3 3 2 2 2 1 1 2 3 3 3 3 2 2 2 1 1 2 4 6 9 11 12 13 15 18 19 19 17 16 15 15 15 14 13 13 14 14 15 16 16 17 18 18 17 17 17 16 16 16 16 16 16 16 16 15 15 14 13 12 12 12 12 13 14
2 1 1 2 2 2 2 2 2 2 3 3 3 3 3 2 3 3 3 3 3 3 3 2 2 2 1 1 1 2 3 3 3 3 3 2 2 2 2 2 3 4 6 7 8 10 14 15 14 14 16 16 15 15 15 15 15 15 15 16 16 17 17 17 17 17 16 16 16 15 15 15 15 15 15 15 15 15 14 13 13 12 12 12 12 13
2 2 2 3 2 2 2 2 3 3 3 3 2 1 1 2 3 3 3 3 3 2 2 2 2 2 2 1 1 1 3 3 4 4 4 3 2 2 2 2 2 2 2 4 5 7 10 10 9 9 12 14 14 14 14 14 15 16 16 16 16 16 16 15 15 15 15 15 15 15 15 15 14 14 14 14 14 14 14 13 13 13 13 12 12 13
2 3 3 3 3 3 3 3 3 3 2 2 2 2 2 2 3 3 4 3 3 3 3 2 2 2 2 2 1 2 3 3 4 4 5 4 3 2 3 3 3 2 2 3 3 4 5 6 6 7 9 12 13 14 14 14 15 16 16 16 15 15 15 14 14 14 14 15 15 14 14 14 14 14 14 14 14 14 14 14 14 14 14 14 14 14
3 3 3 3 3 3 3 2 3 3 2 2 2 2 3 3 3 3 4 3 3 3 3 3 3 3 2 2 2 2 3 3 3 3 4 4 3 3 3 3 4 4 3 3 3 3 3 4 4 5 7 11 13 15 15 15 16 16 17 16 16 15 15 15 15 15 15 15 15 15 15 14 14 14 13 13 14 14 14 14 15 15 15 15 15 15
3 3 3 4 4 3 2 2 3 2 2 2 3 3 3 3 3 3 4 4 4 4 4 4 3 3 2 2 2 3 4 4 3 3 3 3 3 3 3 3 3 4 4 3 3 3 3 3 4 5 6 11 13 15 16 16 16 17 17 17 17 17 16 16 16 16 16 16 16 16 16 15 14 14 14 14 14 14 14 15 15 16 16 16 16 16
4 4 4 4 3 3 3 3 3 3 3 3 3 3 3 3 3 3 4 4 4 4 4 4 4 3 2 2 3 4 5 5 4 3 3 3 3 3 3 3 3 4 4 4 3 3 3 3 4 5 8 11 13 14 16 16 17 17 18 18 18 18 18 18 18 18 18 18 18 17 17 16 15 15 14 14 14 15 15 15 16 16 16 17 17 17
5 4 4 3 3 3 3 4 4 4 4 4 4 3 3 3 4 4 4 4 4 4 4 4 4 4 2 2 2 4 5 5 5 4 4 4 3 3 4 4 4 4 4 4 4 3 3 3 3 5 8 11 12 14 15 16 17 17 18 18 18 18 18 19 19 19 19 19 19 19 19 18 17 16 15 15 15 16 16 16 16 17 17 17 17 17
5 5 5 3 3 3 3 4 4 5 5 5 4 4 4 4 4 4 4 4 4 4 4 4 4 4 3 2 3 5 6 6 6 5 4 3 3 3 3 4 5 5 5 4 4 3 3 3 3 4 7 11 13 14 16 16 17 18 18 18 18 19 19 19 20 20 21 21 21 21 20 19 19 18 17 17 16 17 17 17 17 18 18 18 18 18
5 5 4 4 4 4 4 4 5 6 6 6 5 4 4 4 4 5 4 4 5 5 5 5 4 2 1 2 3 5 6 6 6 5 4 4 4 3 3 4 4 5 5 4 4 3 4 4 4 5 8 12 14 16 17 17 18 18 18 19 19 19 19 20 21 21 22 22 22 22 21 21 20 19 18 18 18 18 18 18 18 19 19 19 18 18
5 5 4 5 5 5 4 4 5 6 7 7 6 5 4 5 5 5 5 5 5 4 4 2 1 1 2 2 2 3 5 5 5 4 4 4 4 4 4 4 4 4 5 4 3 3 4 4 4 5 8 14 16 17 18 19 19 19 19 19 19 19 19 20 21 22 23 23 23 23 22 22 21 20 20 19 19 19 19 19 19 19 19 19 18 18
5 5 4 5 5 5 5 5 5 5 6 6 6 5 5 5 4 4 4 4 3 3 2 2 2 2 2 2 1 2 4 4 4 3 3 4 3 3 3 4 4 5 4 3 3 3 4 4 4 5 6 12 16 18 19 20 20 20 19 19 19 19 20 20 21 22 23 23 23 23 23 22 22 21 20 20 20 19 19 19 19 19 19 18 18 17
5 5 4 4 5 6 6 6 6 6 6 6 5 5 5 4 4 3 2 2 2 2 2 2 2 2 1 2 1 2 3 3 3 3 3 3 2 2 2 3 4 4 4 3 3 3 3 4 4 4 4 9 13 17 19 20 20 20 20 20 20 20 21 21 22 22 23 24 24 24 24 23 23 22 21 20 20 20 20 19 19 18 18 17 17 16
9 8 7 7 7 8 9 9 9 10 10 8 6 5 5 4 4 3 3 3 3 3 3 3 3 3 2 2 2 2 3 3 3 3 3 2 2 2 1 2 3 4 3 2 2 3 3 3 4 4 4 6 10 14 17 19 20 20 21 21 21 21 22 22 22 23 23 24 24 24 24 24 23 22 22 21 20 20 20 19 19 18 17 17 16 16
15 14 13 12 11 11 11 11 12 13 14 12 10 8 6 5 4 4 4 4 4 4 4 4 4 4 3 3 3 3 3 3 3 3 3 2 2 2 2 2 3 3 3 2 2 2 3 4 4 4 4 4 5 9 14 17 19 20 21 21 22 22 23 23 24 24 24 24 24 25 25 24 24 23 22 21 21 20 20 19 19 18 17 16 14 13
18 17 16 15 14 12 11 12 13 14 15 15 15 13 10 7 6 6 6 5 5 5 5 5 5 4 4 4 3 3 3 4 4 4 3 2 2 2 2 2 3 3 3 2 1 1 2 3 3 3 3 4 4 6 10 14 17 19 21 22 22 23 24 24 24 25 24 24 25 25 25 24 24 23 22 22 21 21 20 20 19 18 16 13 10 8
16 16 16 16 15 14 12 11 12 13 15 16 17 16 12 8 7 7 6 5 6 6 6 6 5 4 4 3 2 2 3 4 4 4 3 3 2 2 2 2 3 3 3 2 1 1 1 2 3 3 3 4 4 4 6 10 13 15 18 21 23 24 24 25 25 24 24 24 24 24 25 24 24 23 23 22 21 21 20 20 19 16 13 11 8 6
10 11 12 13 13 12 11 10 10 11 14 16 17 16 12 8 7 7 5 6 6 7 7 6 6 5 4 3 2 2 3 4 5 5 5 4 3 2 3 3 3 3 3 2 1 0 2 2 3 3 4 5 5 5 5 6 8 9 11 16 19 21 23 24 24 24 23 24 24 24 24 24 24 23 23 22 21 21 21 21 18 14 9 7 6 6
6 7 7 8 8 8 8 7 7 8 10 13 15 14 11 8 7 6 6 6 7 7 7 6 6 5 5 4 3 3 3 4 5 6 6 4 3 3 4 4 4 4 4 3 2 1 2 2 2 2 3 4 5 5 5 6 6 6 6 8 11 14 19 21 22 22 22 22 23 24 24 24 24 23 23 22 22 21 21 21 18 14 8 7 6 6
6 6 6 5 5 5 6 6 6 6 7 9 10 10 10 8 7 6 6 6 7 7 7 6 6 6 6 5 5 4 3 4 6 8 7 5 3 3 4 4 4 4 4 4 3 2 2 1 1 1 0 2 3 4 5 6 6 5 5 5 6 9 14 17 18 18 19 20 22 23 24 24 24 23 23 22 22 22 22 22 19 14 8 7 7 7
6 5 5 5 5 4 5 5 5 5 6 6 7 7 8 8 8 7 7 6 6 6 7 7 6 6 6 6 5 4 2 3 6 10 10 6 3 3 3 4 4 4 4 3 3 2 1 1 1 0 1 1 2 3 4 5 5 6 6 6 5 6 10 12 13 14 14 16 18 20 23 23 23 23 23 22 22 22 22 22 20 16 10 7 7 7
6 6 5 5 4 4 5 5 5 6 6 6 6 7 7 7 7 8 7 7 6 7 7 7 7 6 6 6 5 4 2 3 7 10 11 7 4 3 4 4 5 5 4 4 3 2 1 1 1 1 1 1 1 2 3 4 5 5 5 6 5 5 6 8 9 10 11 12 12 14 17 18 20 22 22 22 22 22 22 22 21 18 14 9 8 7
6 6 6 5 5 5 5 5 5 6 6 6 6 7 7 7 7 7 7 7 7 7 6 6 7 6 6 6 5 5 4 4 7 10 11 8 5 4 4 5 5 5 5 5 4 3 2 2 2 2 1 0 1 2 2 3 3 3 3 4 5 5 5 5 6 7 8 8 8 8 9 11 13 16 17 19 20 21 21 22 21 20 18 14 11 8
7 7 6 6 6 6 6 6 6 6 6 6 6 6 6 6 6 6 7 7 7 7 7 7 6 6 6 6 6 5 4 5 8 11 11 8 6 4 4 5 6 6 6 5 5 4 3 3 3 3 2 2 1 2 2 1 1 2 3 4 4 4 4 4 4 5 6 6 6 6 6 7 8 9 11 15 18 19 21 21 21 21 19 17 15 12
7 7 7 6 6 6 6 6 6 6 6 6 5 5 6 6 6 6 6 6 7 7 7 7 7 6 6 5 5 5 4 5 8 10 11 9 7 5 4 4 6 7 7 6 6 5 5 4 4 3 3 3 2 2 1 1 2 2 4 4 4 4 3 3 4 4 5 6 6 6 6 6 6 7 8 13 16 18 19 21 21 21 21 19 17 15
8 8 7 6 6 6 6 6 6 6 6 5 5 5 5 5 5 5 5 6 6 7 7 7 6 7 8 7 6 4 4 7 9 11 12 9 7 6 4 4 5 7 7 6 6 6 6 5 5 5 4 3 3 2 2 3 4 4 5 4 3 3 3 3 3 4 5 6 6 6 6 6 6 6 6 8 9 10 11 13 15 17 19 18 17 17
8 7 7 6 6 6 6 6 5 5 5 5 5 5 5 5 5 5 5 5 6 6 7 6 6 6 7 7 6 5 5 8 10 12 12 10 8 6 5 5 5 6 6 6 5 5 6 6 6 5 4 3 2 2 2 3 4 5 4 3 2 2 2 2 3 4 5 5 6 6 6 5 5 5 5 6 6 6 7 7 8 10 12 10 12 14
7 7 7 6 6 6 5 5 5 4 4 4 5 5 5 4 4 4 4 4 5 5 6 6 5 5 5 5 4 4 4 6 8 10 10 10 8 7 6 5 5 5 6 5 5 5 6 5 5 5 5 4 3 3 3 3 4 5 6 4 4 4 4 3 3 3 4 5 6 6 5 5 5 6 6 6 6 6 6 6 6 6 7 6 6 7
7 7 6 6 5 5 5 5 5 5 5 4 4 4 4 4 4 4 4 4 4 4 4 4 4 4 3 3 2 1 1 3 5 8 8 9 10 8 6 5 5 5 5 5 5 5 5 5 5 5 4 3 3 3 4 5 6 8 8 6 5 4 5 4 4 3 3 4 5 6 6 6 6 6 6 7 6 6 6 6 5 5 5 4 5 5
9 8 6 5 4 4 4 5 5 5 5 5 5 5 5 5 4 4 4 4 4 4 3 4 4 4 4 3 2 1 0 1 3 5 8 9 10 9 7 6 5 5 5 5 5 5 6 6 5 5 5 4 3 3 3 4 6 7 8 6 5 4 4 3 3 2 3 4 5 6 8 7 7 7 7 6 5 5 5 5 6 6 6 4 4 4
8 7 5 4 4 4 4 5 5 5 5 5 5 5 5 5 5 5 5 5 5 5 4 5 5 5 5 5 4 2 1 1 2 3 5 8 9 10 9 8 6 6 5 5 5 5 6 6 5 5 5 5 4 4 3 4 5 6 6 6 6 5 3 3 3 3 3 4 5 6 7 7 6 5 5 5 4 4 4 5 6 8 7 5 5 4
6 5 5 4 3 3 4 4 4 5 5 5 5 5 5 5 6 6 5 5 5 5 4 4 4 5 5 5 5 4 3 1 1 2 4 6 8 9 9 8 7 7 6 6 5 5 5 5 5 5 4 4 4 4 4 4 4 5 5 6 7 6 5 5 5 6 4 4 4 5 6 6 6 5 4 4 3 3 3 3 4 4 4 4 4 4
5 4 4 4 4 4 4 5 5 5 5 6 6 6 5 6 6 6 6 5 5 5 5 4 4 4 5 6 5 5 4 3 2 2 2 5 7 9 8 7 7 6 7 6 6 6 5 5 5 4 3 4 4 4 4 5 5 5 5 6 6 5 3 4 6 7 6 6 5 5 5 6 6 6 4 4 3 3 3 4 4 4 3 3 4 4
6 6 5 4 4 5 6 6 6 5 6 6 6 6 6 6 6 6 6 5 5 5 5 5 5 5 6 5 5 5 4 4 3 3 2 3 4 5 6 6 5 5 5 5 5 5 5 5 5 4 4 4 4 4 5 5 5 5 5 6 5 4 3 3 5 7 8 7 6 5 5 6 6 7 6 6 4 3 3 3 4 5 4 4 4 4
8 7 7 6 5 5 5 6 6 6 7 7 6 6 6 5 6 5 5 5 5 5 5 5 6 6 6 6 5 5 6 5 5 4 4 3 3 4 4 4 4 3 3 3 3 3 3 3 4 5 5 5 5 5 5 4 5 5 5 6 5 4 4 4 4 6 7 7 6 6 6 6 7 7 7 6 5 4 2 2 3 3 4 4 4 4
9 8 7 6 6 5 5 5 6 7 7 7 6 6 6 6 7 6 5 5 5 5 5 6 6 6 6 6 6 6 7 6 6 5 5 5 4 4 4 3 2 2 1 1 1 1 1 1 2 4 6 6 6 5 5 5 5 5 5 6 6 5 4 4 4 5 5 6 7 7 8 7 7 7 7 6 5 4 3 3 2 2 2 3 4 4
8 8 8 6 6 6 6 6 6 7 8 7 6 6 6 7 8 8 6 6 6 6 6 6 6 6 6 6 6 6 7 6 6 6 5 5 5 4 4 4 3 2 2 1 2 2 2 2 1 1 3 5 5 5 5 5 5 5 5 5 6 5 5 4 4 5 5 6 7 8 8 7 7 7 7 7 6 6 5 4 3 3 2 3 3 4
9 9 8 7 7 7 7 6 7 7 8 8 7 6 6 6 6 6 6 6 6 6 6 7 7 7 6 6 6 6 6 6 6 6 6 6 5 5 5 5 4 3 2 2 1 1 1 1 2 2 3 4 5 5 5 5 5 4 4 5 5 5 5 5 5 5 5 6 6 7 7 6 5 5 6 7 7 6 5 4 4 3 3 3 3 3
9 9 9 8 8 7 6 6 6 7 7 7 7 7 6 6 6 6 6 6 6 6 6 6 7 7 7 7 6 7 7 6 6 6 6 6 6 6 7 6 6 5 4 4 3 3 2 2 2 3 4 6 7 6 5 6 6 5 5 5 4 4 5 4 4 5 5 5 6 6 6 6 5 5 6 7 7 6 5 5 5 4 4 3 3 3
Wind_Direction
294 235 172 167 170 179 195 195 197 203 212 212 213 212 208 210 213 209 195 185 186 193 203 207 196 177 163 161 157 151 138 118 100 92 91 138 181 185 180 173 169 167 169 171 173 174 174 173 174 174 176 177 178 178 179 178 177 176 176 176 177 179 179 180 182 184 187 189 191 192 191 189 188 188 189 190 192 194 196 199 201 202 202 201 202 202
316 289 194 175 178 185 197 194 196 199 204 206 208 208 204 210 218 223 224 218 213 212 217 216 207 190 179 174 169 163 155 141 128 121 119 127 150 175 183 174 168 164 164 166 169 172 173 172 172 173 174 175 177 178 179 177 176 175 175 176 177 179 180 182 185 188 191 193 194 195 194 192 191 191 192 193 195 196 199 200 202 202 202 203 203 204
311 241 207 185 187 193 199 195 198 202 203 205 204 203 201 207 212 218 220 222 223 223 229 225 217 207 201 194 186 180 173 161 150 142 138 136 142 157 177 176 170 165 162 163 166 169 172 172 172 172 173 175 176 177 177 175 174 174 174 175 177 179 181 184 188 191 194 196 197 197 196 195 195 195 195 196 197 199 201 202 203 203 203 203 204 206
294 239 219 197 200 204 205 196 198 203 206 207 204 201 199 205 211 215 215 215 216 220 226 224 219 215 215 213 204 196 187 177 166 157 151 149 151 156 166 174 172 167 162 162 163 167 171 173 174 174 174 175 175 175 174 172 170 170 171 173 175 179 182 186 190 194 197 199 200 200 199 199 199 199 198 199 200 201 203 203 203 203 203 204 205 206
308 288 266 223 218 219 219 199 193 197 203 206 204 201 200 206 211 214 214 215 217 219 220 216 215 216 217 218 214 208 198 188 178 168 163 161 161 162 165 171 173 171 166 163 163 165 169 173 176 177 177 176 174 172 169 167 166 166 168 171 175 179 184 188 193 197 200 203 203 203 202 202 202 202 201 201 202 204 205 205 204 204 204 205 206 208
312 320 325 287 259 258 315 340 187 183 187 197 199 199 200 205 207 209 210 212 215 217 217 212 210 212 216 216 217 213 205 196 187 178 173 172 171 170 170 172 173 173 170 166 164 165 168 173 177 179 179 176 172 168 164 162 162 164 167 171 176 181 186 191 196 201 204 206 206 206 205 204 204 204 203 204 204 205 206 206 205 204 204 205 207 209
305 327 338 335 337 345 352 349 345 169 167 178 182 186 190 194 197 200 204 205 207 210 212 207 201 202 212 217 218 215 209 200 192 185 181 181 181 180 178 177 176 175 174 171 169 168 170 174 177 179 178 175 169 164 159 159 159 162 166 171 176 181 187 193 199 204 208 210 210 209 207 206 205 205 205 205 206 207 207 206 205 204 205 207 209 211
271 300 316 330 341 345 339 333 321 238 168 164 164 163 159 159 164 174 186 195 199 200 198 194 189 188 195 210 215 212 208 199 194 189 186 187 187 186 185 182 180 178 177 175 173 173 173 175 177 177 176 172 166 160 155 155 156 160 165 171 176 183 191 198 204 209 213 214 214 212 210 208 206 205 205 206 208 208 208 207 206 205 206 208 211 213
217 232 247 229 206 195 288 306 303 294 206 163 161 163 160 158 144 114 83 111 188 192 187 186 188 188 174 97 223 213 204 194 190 187 187 189 190 189 188 186 183 181 179 178 177 176 176 177 177 176 175 170 165 159 154 154 156 160 167 174 183 192 201 209 214 217 220 220 219 217 214 211 208 206 206 207 208 209 209 208 207 207 207 209 212 215
213 214 222 227 216 193 176 237 279 297 320 142 148 156 161 164 161 154 159 194 226 232 198 192 191 189 174 99 19 257 203 194 191 189 189 191 190 188 186 185 184 182 181 180 179 178 178 178 178 177 175 172 167 163 158 158 160 165 172 182 192 202 211 216 220 222 224 224 223 220 217 213 210 208 207 207 208 209 209 209 209 209 209 211 213 216
227 222 218 233 248 265 111 222 272 302 34 92 99 121 162 172 171 175 188 198 206 223 245 214 201 191 179 170 161 178 185 188 191 193 194 192 188 185 183 182 182 182 182 182 181 181 180 179 179 178 177 175 173 170 167 166 168 172 179 188 197 205 212 216 219 221 223 224 223 222 220 216 213 210 208 207 207 208 208 209 209 210 211 213 215 217
220 220 218 222 229 263 24 341 327 329 98 119 137 174 209 195 184 182 191 195 195 195 211 225 224 209 190 178 173 172 178 180 184 187 187 174 172 178 182 182 182 182 184 184 184 184 182 181 180 179 179 178 177 176 174 173 175 179 184 191 198 204 210 213 215 217 219 221 222 222 221 217 214 211 208 207 207 206 206 206 207 209 211 214 216 218
208 202 206 216 212 201 172 126 10 206 186 187 192 197 200 193 186 185 193 195 190 184 185 200 226 242 240 189 175 175 183 188 185 179 171 151 131 133 163 177 180 182 184 185 187 187 185 183 181 180 179 179 179 179 178 178 180 184 188 194 199 204 208 210 212 214 215 217 219 221 221 218 216 212 209 207 206 204 203 202 203 206 209 213 217 219
212 201 207 218 218 210 192 186 192 200 205 208 208 204 188 170 167 175 185 188 178 163 160 182 203 233 273 280 214 185 182 184 182 179 181 174 161 143 139 152 165 174 179 183 186 187 185 184 182 181 179 179 178 179 179 181 184 187 191 196 201 204 207 209 210 211 213 215 218 220 220 219 216 213 210 207 205 202 200 199 199 202 206 211 216 220
215 210 220 223 220 213 201 200 207 213 214 215 211 193 139 142 157 169 175 173 154 134 136 168 195 224 249 262 249 206 183 183 182 185 191 187 174 153 144 139 135 143 162 176 180 182 181 180 179 177 177 178 178 178 179 182 187 191 193 197 201 204 207 208 209 211 212 215 217 219 220 219 216 213 209 206 203 200 197 197 198 201 205 210 215 220
217 216 224 227 225 217 203 201 207 215 215 208 195 177 161 166 171 174 175 164 147 133 142 163 190 222 243 243 231 206 190 188 189 191 193 189 179 163 156 147 144 146 157 169 171 171 171 171 169 170 171 175 177 178 179 182 187 191 194 197 201 204 207 209 210 211 213 215 217 218 219 218 216 212 208 204 201 198 196 197 199 202 206 210 214 219
223 222 224 228 228 224 207 201 203 204 197 193 192 192 188 182 178 175 175 160 150 151 167 173 185 203 223 230 225 210 193 190 192 194 194 191 182 172 168 162 162 165 169 175 172 165 159 158 157 160 166 172 175 177 180 184 188 191 194 197 201 204 207 209 211 212 213 215 216 218 219 217 215 211 207 203 200 198 197 198 200 203 207 211 214 218
228 224 224 227 228 224 207 200 199 196 187 190 195 197 197 188 180 175 175 167 165 169 179 187 194 197 192 199 199 193 184 185 185 187 195 197 185 169 169 173 173 172 173 181 178 171 162 158 155 156 162 173 176 179 182 185 189 192 195 198 202 204 207 209 211 212 213 215 216 217 218 216 213 210 206 202 200 198 198 200 203 206 209 212 215 217
232 226 224 227 228 223 211 204 197 194 192 192 191 190 194 189 184 182 184 179 178 179 181 192 202 207 197 192 180 175 176 178 179 182 195 201 188 169 167 179 183 184 185 189 184 175 166 162 162 165 169 176 181 184 186 189 193 196 199 202 204 206 207 209 211 212 213 214 215 215 216 215 212 209 205 202 200 200 201 203 205 208 211 213 215 216
236 231 225 223 225 226 224 213 204 196 194 189 186 186 192 188 188 190 193 189 188 187 185 195 204 210 204 173 159 164 173 174 177 185 197 199 190 176 170 181 188 193 200 198 187 174 168 166 171 178 184 187 189 191 193 196 199 201 204 206 207 208 209 210 211 212 213 213 213 214 214 213 211 208 205 202 201 201 203 205 207 210 213 214 215 216
238 235 226 217 216 222 227 216 205 198 193 185 184 187 193 189 192 196 197 194 193 194 193 204 209 209 201 165 159 168 175 174 178 184 192 198 193 183 172 181 188 196 204 203 191 175 170 170 174 183 191 196 198 200 202 204 206 208 209 210 210 211 211 211 212 212 213 213 212 212 212 212 210 208 205 203 202 203 204 206 209 211 213 214 215 216
240 237 226 216 216 221 225 212 201 195 189 185 187 192 192 190 194 199 197 196 197 199 201 206 207 199 165 140 156 170 179 182 182 182 177 195 198 190 169 179 187 195 206 202 191 176 173 175 182 191 199 203 206 208 209 211 212 213 213 214 214 213 213 213 214 214 213 213 212 211 211 211 210 208 205 204 203 204 205 207 209 211 212 213 214 215
243 239 230 222 221 222 220 208 198 193 189 191 194 196 192 191 194 196 194 195 199 203 203 198 158 68 53 74 133 169 187 195 192 185 177 195 196 184 162 173 184 195 207 198 184 175 177 182 187 195 204 209 211 213 214 215 216 216 216 216 216 216 216 216 216 216 215 214 213 212 211 211 210 209 207 205 204 205 206 208 209 210 211 212 213 214
246 241 232 226 224 223 219 209 200 194 192 195 198 199 196 193 192 190 186 190 194 193 174 125 96 78 65 81 115 174 201 206 203 195 190 197 187 163 152 168 182 195 204 189 174 168 177 188 192 196 204 213 215 216 217 218 218 218 218 218 218 218 219 219 219 218 217 215 214 212 211 211 210 209 208 206 206 206 206 208 209 209 210 211 211 212
246 241 232 228 226 225 223 215 205 197 193 194 196 197 195 191 184 173 159 164 167 161 143 140 153 164 148 132 149 196 214 214 208 201 195 188 163 137 147 171 182 190 195 170 152 155 174 193 198 200 206 217 219 220 221 221 220 220 220 220 220 220 221 221 221 220 218 216 215 213 212 211 210 209 208 207 206 206 206 207 208 208 209 209 210 211
247 244 240 237 235 232 230 224 215 206 198 194 192 191 186 181 173 165 157 162 164 164 165 184 195 196 177 169 178 198 209 215 214 208 195 176 155 144 157 177 182 183 180 145 136 153 180 200 205 206 209 219 223 224 224 224 223 222 222 221 221 222 222 223 222 221 219 217 215 213 211 210 209 208 207 206 206 206 206 206 207 207 207 208 209 210
253 251 249 246 243 239 235 231 224 215 206 200 195 189 179 174 174 180 188 181 175 174 184 200 206 204 190 194 193 191 187 201 209 209 197 173 161 158 160 172 176 174 165 133 133 165 192 207 211 211 212 217 224 227 227 227 226 225 224 223 223 223 224 224 223 222 220 217 214 212 210 208 208 207 206 205 205 205 205 205 205 205 205 206 207 209
255 254 252 250 247 243 239 235 229 223 215 207 199 192 183 178 183 192 198 184 178 181 195 202 205 205 202 207 197 180 174 196 202 201 190 177 174 170 149 162 167 163 150 118 102 160 210 220 220 217 216 213 217 225 230 229 229 228 226 225 225 225 224 224 224 222 220 217 213 211 209 207 206 206 205 204 204 204 204 204 204 204 204 203 203 203
255 255 254 252 249 245 241 237 232 227 222 215 206 198 190 187 191 196 195 180 179 188 200 203 204 206 207 203 184 165 180 199 198 189 177 181 183 171 133 155 163 159 143 109 72 27 253 236 226 218 218 211 209 215 226 228 229 229 228 226 225 225 225 224 223 222 220 217 214 211 208 207 206 205 204 204 203 203 203 203 202 202 202 200 197 193
253 254 255 253 249 245 240 235 231 228 226 220 214 207 200 198 198 197 189 180 184 193 201 202 203 203 200 186 177 185 207 202 191 180 173 185 186 165 134 156 167 165 150 130 107 347 262 238 222 214 213 207 204 204 210 218 222 224 226 225 225 224 224 223 223 222 220 217 215 212 209 208 206 205 204 203 203 202 202 201 201 200 197 193 189 186
242 245 248 249 248 244 239 233 228 225 224 222 218 213 207 205 203 199 191 187 189 194 198 200 201 200 195 188 195 207 212 190 179 176 175 188 188 169 148 163 171 171 166 156 157 184 241 241 230 216 210 208 205 202 201 205 210 213 216 219 222 223 223 222 222 222 221 219 216 213 211 209 207 206 204 203 202 202 201 201 200 197 191 186 184 185
233 236 240 241 242 242 240 234 228 222 219 219 218 215 211 208 205 202 198 195 194 195 197 200 201 201 200 202 209 213 205 171 169 173 176 186 187 172 160 165 168 173 182 179 177 177 193 218 228 234 260 217 212 208 203 203 204 206 207 211 216 220 221 220 220 221 221 220 218 215 212 210 208 206 204 203 202 201 201 200 199 196 186 182 183 186
230 232 234 234 235 236 237 235 230 224 218 215 214 213 211 207 204 203 203 201 198 196 197 198 200 202 205 212 218 219 197 163 167 173 176 181 182 173 167 166 166 169 179 193 192 177 166 184 188 220 294 245 228 216 209 206 205 204 202 205 210 216 217 217 217 218 218 219 218 216 213 210 208 206 204 203 202 201 201 200 199 196 186 180 181 183
227 228 228 228 228 230 232 233 232 229 224 218 214 211 209 206 203 202 203 203 202 201 200 199 199 200 202 210 218 221 201 173 170 173 176 182 182 174 167 174 172 169 169 187 193 188 160 166 168 179 250 260 245 228 214 211 207 205 201 204 206 208 211 212 212 212 213 213 214 214 212 209 207 206 204 203 202 202 201 200 199 196 190 181 177 177
227 224 221 220 222 224 226 228 229 230 229 224 219 214 210 206 202 200 200 202 203 204 205 205 202 200 199 203 210 214 200 178 174 176 177 183 182 173 170 183 180 175 173 182 187 190 203 199 187 176 162 201 246 239 224 217 212 208 206 210 208 206 205 207 206 205 205 204 205 206 205 203 203 204 204 202 202 201 200 199 198 197 192 186 180 176
231 226 219 215 215 217 220 221 223 225 228 227 224 219 214 210 205 200 197 199 201 204 207 210 210 208 204 202 204 204 194 172 173 178 180 183 181 176 177 185 184 180 180 183 186 190 197 200 195 187 172 176 205 235 238 226 211 206 211 216 215 213 210 209 205 200 195 195 196 195 193 193 195 198 199 199 198 198 198 198 198 197 195 190 185 181
233 229 222 216 212 213 215 216 217 219 221 223 223 222 220 217 211 204 197 196 198 202 206 210 213 215 215 211 207 200 184 164 171 179 182 182 181 181 182 181 182 183 185 185 187 189 193 194 196 198 200 197 199 206 221 187 185 197 208 209 210 210 211 215 210 200 190 191 190 188 185 183 185 188 190 193 194 195 196 197 197 198 197 194 190 186
235 233 228 220 214 211 212 214 215 215 215 216 217 218 219 218 214 208 199 195 195 198 202 205 210 215 218 219 213 199 174 163 171 178 181 181 183 184 181 176 181 187 191 188 185 185 189 192 195 201 209 205 198 187 174 169 181 193 202 199 197 197 203 212 211 203 193 187 183 181 179 178 177 178 180 185 188 190 193 195 197 198 198 197 194 191
236 233 228 221 216 212 213 213 213 212 210 210 210 211 212 214 213 210 203 196 195 196 198 200 205 210 215 214 209 197 178 171 174 177 179 181 183 185 182 178 183 189 193 191 187 186 188 194 197 198 198 193 185 174 166 174 180 183 181 180 191 206 211 210 210 206 195 182 176 174 174 173 171 171 174 175 176 178 182 186 189 191 192 195 196 195
242 236 230 223 217 213 212 212 209 205 203 204 205 205 205 209 212 211 207 200 196 195 195 195 198 203 209 213 208 197 185 179 178 179 180 181 183 186 186 183 182 184 187 191 192 191 192 198 202 201 195 181 169 163 166 179 180 174 164 167 186 202 203 198 202 206 196 179 172 170 169 168 169 171 174 175 176 177 178 178 179 179 175 174 183 191
251 244 237 228 220 214 212 208 201 195 193 195 197 199 203 206 208 210 211 207 203 197 188 186 189 195 200 193 173 147 186 195 188 184 183 183 184 186 189 187 183 178 179 187 193 196 196 200 203 203 195 175 156 152 160 176 177 174 172 178 183 183 176 176 181 189 190 179 171 166 164 167 171 175 177 179 179 178 171 166 164 163 160 160 168 175
253 250 244 234 222 212 206 197 191 188 187 188 194 200 203 203 204 205 206 208 206 198 183 179 181 187 195 195 180 125 15 248 212 198 189 186 185 186 189 189 185 179 175 181 190 198 202 202 203 202 196 178 163 153 162 175 179 180 182 180 166 146 136 166 177 180 184 180 172 165 165 169 174 178 177 177 175 168 160 158 160 161 160 161 164 169
248 251 250 239 222 204 191 185 185 187 187 193 199 203 202 201 202 203 204 206 204 198 188 184 183 185 192 196 196 194 206 260 248 223 202 191 188 188 190 190 186 181 176 178 187 197 204 206 207 205 196 183 175 169 161 169 180 186 187 175 160 149 158 185 189 185 187 182 175 170 170 172 174 174 170 164 158 152 152 161 165 166 165 163 164 166
247 250 251 240 223 204 190 189 189 190 191 198 203 205 202 200 201 202 204 205 202 196 190 188 186 187 194 199 197 194 194 202 236 240 222 203 196 193 192 191 188 185 181 181 183 188 194 206 211 208 193 185 183 181 171 171 179 185 188 179 176 176 179 171 168 170 180 182 179 175 172 167 161 153 146 139 137 140 149 156 159 160 160 156 157 158
261 256 252 240 223 209 201 197 193 190 193 201 205 205 200 198 199 201 203 201 197 193 188 183 183 189 201 202 197 190 187 183 190 211 231 215 207 202 198 194 191 189 190 191 187 183 183 196 201 199 186 185 188 189 184 179 179 183 186 187 187 185 169 150 158 167 174 177 178 175 167 157 151 147 146 149 151 155 157 158 157 154 149 146 150 154
267 263 257 247 233 220 212 201 193 190 195 203 206 204 198 196 197 199 201 197 193 189 187 184 189 197 204 199 192 187 186 183 181 183 196 210 210 207 204 200 195 193 196 199 197 191 188 189 186 180 176 187 197 200 194 183 179 180 183 186 183 169 125 138 160 171 174 174 173 169 160 154 155 159 168 170 172 171 170 169 167 164 158 156 157 159
257 257 255 251 242 231 220 205 197 194 199 203 203 201 196 193 195 197 199 195 190 185 183 188 198 206 207 198 191 188 188 186 183 180 180 188 195 198 200 198 195 192 191 195 196 195 194 185 177 172 174 185 197 205 203 189 181 179 179 180 177 168 154 163 172 176 175 172 168 162 157 158 164 171 176 174 173 174 179 186 183 175 165 163 162 163
248 249 249 248 244 238 229 214 204 199 200 200 199 196 195 192 193 195 196 193 189 185 183 191 201 209 211 205 199 194 189 186 183 180 176 178 180 181 181 174 166 154 148 149 134 109 82 106 158 173 179 185 192 198 198 192 186 182 178 178 177 174 170 171 173 174 173 169 165 162 163 169 174 176 174 172 175 180 184 191 196 194 179 168 164 163
242 243 244 244 243 241 237 224 211 203 200 197 193 191 192 193 195 195 193 190 188 188 188 193 199 206 210 209 205 199 193 187 183 179 175 173 171 170 168 162 151 135 113 93 74 58 47 36 25 201 193 190 191 192 191 189 187 183 177 178 178 176 171 167 167 169 170 165 164 167 175 181 181 175 168 173 180 186 186 186 188 191 189 178 170 167
234 236 237 238 239 239 238 230 217 207 200 194 189 187 187 190 194 196 193 190 190 192 194 194 197 201 207 208 205 200 196 189 183 179 176 170 167 165 166 164 160 154 146 134 120 96 44 347 319 288 247 219 203 192 185 184 181 179 179 182 180 175 167 162 163 166 167 162 164 170 181 186 182 174 170 177 182 185 185 185 185 184 181 179 177 176
227 228 229 230 232 234 234 228 220 210 201 192 186 183 182 186 191 195 195 194 195 197 198 195 197 201 206 205 203 200 197 191 185 181 177 168 165 165 167 166 165 164 164 166 172 180 190 218 250 262 256 232 216 201 185 178 175 176 183 186 181 172 163 158 158 161 164 163 165 170 177 182 182 180 179 181 181 182 186 188 187 182 173 171 175 183